Вернуться в каталог

STARLINK-36538

АктивенСвязьVLEO
NORAD 67512·PAYLOAD·🇺🇸 United States

Запущен Jan 18, 2026 с Cape Canaveral Space Force Station

Loading…

Ближайшие Пролёты (ближайшие 24 часа)

TLE

СвежийSource: CelesTrak SupGP

Эпоха: Sep 14, 2026, 21:10 UTC

1 67512C 26012V   26257.88243056 -.00024246  00000+0 -87829-3 0  2573
2 67512  43.0015 326.1788 0001379 274.2390  87.3546 15.27586618    11

Отслеживайте STARLINK-36538 в реальном времени с AllMySat

Download on the App Store